COSMOS 2551 (49127 NORAD) Tracking and Keplerian Element Data

This shows tracking and keplerian element data for the satellite.

Feedback or suggestion? Click here.




ElementValue
Catalog49127
NameCOSMOS 2551
Epoch Orbit645
Epoch Day293.13632818
Epoch Year2021
RAAN20.0231
Inclination96.3418
Eccentricity0.0010699
Argument of Perigee296.6217
Mean Anonmoly106.3909
Mean Motion16.5104472
Decay Rate0.23058852
L11 49127U 21081A 21293.13632818 .23058852 18713-5 21915-3 0 9993
L22 49127 96.3418 20.0231 0010699 296.6217 106.3909 16.51044720 6455

Live tracking and technical data element details for COSMOS 2551 (NORAD 49127). COSMOS 2551 can be tracked NOW for your location showing map with azimuth and elevation plus other details from your city location.

Track the satellite on the map from your city or location and see movement details for azimuth, elevation, latitude, longitude, range, height, and movement on the map or in text.







IsCatalogInMostPopularTable: catalog: 49127, numindb: 10
Update: records affected: 1



GetName: 49127 COSMOS 2551

Hit Count: updated at: Thu, 28 Oct 2021 10:38:33 GMT